loading
|

TITAN 3C TRANSTAGE DEB, 1653

Orbit data source: Space-Track

TITAN 3C TRANSTAGE DEB, 1653 is space debris in LEO originally from a launch on Fri, 15 Oct 1965 UTC launched from the Air Force Eastern Test Range (AFETR). Debris objects in space refer to the collection of defunct objects orbiting the Earth. Examples of debris include non-operational satellites, rocket bodies, and fragments generated from explosions, collisions, or faulty payload assembly.

Loading next visibility...
Loading greatness...
TITAN 3C TRANSTAGE DEB details
Identifier
1653, 1965-082Q
Orbit
LEO
Last TLE update22 hours ago
Origin
Flag of USUSAF SSD (US)
ManufacturerUnknown
MissionSpacecraft
Bus & MotorUnknown bus, Unknown motor
MassUnknown
Launch date (UTC)
1965-10-15 (59 years ago)
Launch vehicleUnknown
Launch site
Air Force Eastern Test Range (AFETR)
Object type
Payload
Rocket body
Debris
Shape & HBRUnknown
Radar Cross Section0.610 m², Medium (>0.1 m² and < 1m²)

Expand to show TLE details & history

TLE from 22 hours ago
0 TITAN 3C TRANSTAGE DEB
1 01653U 65082Q   24276.62329091  .00002036  00000-0  37436-3 0  9996
2 01653  32.1186 257.2445 0041404 181.1120 178.9437 14.63471175120207
Epoch: 2024-10-02T14:57Z
Definitive object data (Epoch: 2024-10-02T14:57:32.334Z)
Latitude-0.00004°
Longitude21.03972°
Altitude709.856 km
Speed7.488 km/s
True Right ascension17h 08m 58s
True Declination0° 00' 00"
Sunlit
Object was in daylight at TLE epoch
Predictive object data (real-time)
Latitude5.86827°
Longitude-173.77636°
Altitude652.669 km
Speed7.549 km/s
Apparent Right ascension01h 12m 53s
Apparent Declination-36° 25' 48"
Sunlit
Object is in full shadow
Predictive observer data (real-time)
Local Sidereal Time06:51:02
Azimuth237.787° WSW
Elevation-18.801°
Doppler factor1
Orbital elements
Apogee714.834 km
Perigee656.34 km
Semi-major axis7,063.724 km
Eccentricity0.0041404
Inclination32.1186°
RAAN257.2445°
Arg. of periapsis181.112°
True anomaly178.9524°
Mean anomaly178.9437°
Eccentric anomaly178.94806°
Mean motion3.65589 °/min
BSTAR0.00037436
Period98.47 mins
No data available

TITAN 3C TRANSTAGE DEB Visibility forecast

Observer location: 39.9160978°, -105.1181434

TITAN 3C TRANSTAGE DEB is not visible in the next 10 days
Span
Click to sort rows by Start time (UTC) header in descending order
Start Az.
Max El. time (UTC)
Max El. Az.
Max El.
End time (UTC)
End Az.